| time (UTC) | temp F | wind direction | speed MPH | gust MPH | rain 1hr in | rain 24hr in | rain mn in | humidity % | barometer mb |
| 20260904200053 | 86 | 360 | 5.0 | 10.0 | 0.00 | 0.00 | 0.00 | 56 | 1008.7 |
| 20260904194607 | 86 | 352 | 3.0 | 12.0 | 0.00 | 0.00 | 0.00 | 58 | 1008.9 |
| 20260904193046 | 86 | 351 | 3.0 | 10.0 | 0.00 | 0.00 | 0.00 | 60 | 1008.9 |
| 20260904191543 | 87 | 9 | 5.0 | 11.0 | 0.00 | 0.00 | 0.00 | 59 | 1009.0 |
| 20260904190053 | 87 | 327 | 4.0 | 9.0 | 0.00 | 0.00 | 0.00 | 61 | 1009.0 |
| 20260904184548 | 86 | 333 | 2.0 | 8.0 | 0.00 | 0.00 | 0.00 | 61 | 1008.9 |
| 20260904183106 | 86 | 0 | 1.0 | 9.0 | 0.00 | 0.00 | 0.00 | 63 | 1008.8 |
| 20260904181606 | 86 | 360 | 4.0 | 11.0 | 0.00 | 0.00 | 0.00 | 62 | 1008.9 |
| 20260904180049 | 85 | 352 | 6.0 | 11.0 | 0.00 | 0.00 | 0.00 | 60 | 1008.8 |
| 20260904174546 | 85 | 342 | 4.0 | 12.0 | 0.00 | 0.00 | 0.00 | 64 | 1009.1 |
| 20260904173125 | 85 | 327 | 4.0 | 11.0 | 0.00 | 0.00 | 0.00 | 63 | 1009.4 |
| 20260904171548 | 84 | 22 | 4.0 | 12.0 | 0.00 | 0.00 | 0.00 | 64 | 1009.4 |
| 20260904170045 | 84 | 294 | 3.0 | 12.0 | 0.00 | 0.00 | 0.00 | 65 | 1009.4 |
| 20260904164547 | 83 | 307 | 4.0 | 10.0 | 0.00 | 0.00 | 0.00 | 66 | 1009.5 |
| 20260904163043 | 83 | 31 | 5.0 | 12.0 | 0.00 | 0.00 | 0.00 | 66 | 1009.7 |
| 20260904161546 | 82 | 344 | 7.0 | 12.0 | 0.00 | 0.00 | 0.00 | 67 | 1009.8 |
| 20260904160045 | 82 | 345 | 6.0 | 12.0 | 0.00 | 0.00 | 0.00 | 67 | 1009.9 |
| 20260904154548 | 81 | 360 | 6.0 | 13.0 | 0.00 | 0.00 | 0.00 | 68 | 1009.8 |
| 20260904153053 | 80 | 342 | 5.0 | 13.0 | 0.00 | 0.00 | 0.00 | 72 | 1009.7 |
| 20260904151547 | 79 | 351 | 6.0 | 11.0 | 0.00 | 0.00 | 0.00 | 73 | 1009.8 |
| 20260904150055 | 78 | 5 | 5.0 | 10.0 | 0.00 | 0.00 | 0.00 | 77 | 1010.0 |
| 20260904144544 | 77 | 327 | 3.0 | 10.0 | 0.00 | 0.01 | 0.00 | 81 | 1010.0 |
| 20260904143058 | 76 | 5 | 2.0 | 8.0 | 0.00 | 0.01 | 0.00 | 84 | 1010.2 |
| 20260904141550 | 75 | 21 | 0.0 | 7.0 | 0.00 | 0.01 | 0.00 | 87 | 1010.2 |
| 20260904140047 | 74 | 320 | 2.0 | 7.0 | 0.00 | 0.01 | 0.00 | 89 | 1010.2 |
| 20260904134547 | 73 | 267 | 1.0 | 4.0 | 0.00 | 0.03 | 0.00 | 94 | 1010.4 |
| 20260904133048 | 72 | 284 | 2.0 | 6.0 | 0.00 | 0.03 | 0.00 | 95 | 1010.3 |
| 20260904131544 | 72 | 229 | 2.0 | 7.0 | 0.00 | 0.03 | 0.00 | 96 | 1010.6 |
| 20260904130044 | 71 | 216 | 2.0 | 6.0 | 0.00 | 0.03 | 0.00 | 97 | 1010.4 |
| 20260904124548 | 71 | 238 | 1.0 | 8.0 | 0.00 | 0.03 | 0.00 | 98 | 1010.6 |
| 20260904123045 | 71 | 263 | 1.0 | 6.0 | 0.00 | 0.03 | 0.00 | 98 | 1010.7 |
| 20260904121544 | 70 | 246 | 2.0 | 6.0 | 0.00 | 0.03 | 0.00 | 99 | 1010.8 |
| 20260904120049 | 70 | 217 | 2.0 | 4.0 | 0.00 | 0.03 | 0.00 | 99 | 1010.7 |
| 20260904114548 | 70 | 0 | 0.0 | 4.0 | 0.00 | 0.05 | 0.00 | 99 | 1010.7 |
| 20260904113047 | 69 | 0 | 1.0 | 3.0 | 0.00 | 0.05 | 0.00 | 98 | 1010.7 |
| 20260904111555 | 69 | 236 | 0.0 | 3.0 | 0.00 | 0.05 | 0.00 | 98 | 1010.7 |
| 20260904110043 | 69 | 0 | 0.0 | 2.0 | 0.00 | 0.05 | 0.00 | 98 | 1010.8 |
| 20260904104556 | 69 | 0 | 0.0 | 1.0 | 0.00 | 0.07 | 0.00 | 98 | 1010.8 |
| 20260904103045 | 70 | 0 | 0.0 | 3.0 | 0.00 | 0.07 | 0.00 | 98 | 1010.7 |
| 20260904101544 | 70 | 0 | 0.0 | 2.0 | 0.00 | 0.07 | 0.00 | 99 | 1010.5 |
| 20260904100049 | 70 | 245 | 0.0 | 1.0 | 0.00 | 0.07 | 0.00 | 99 | 1010.3 |
| 20260904094547 | 70 | 0 | 0.0 | 1.0 | 0.00 | 0.23 | 0.00 | 99 | 1010.1 |
| 20260904093046 | 70 | 0 | 0.0 | 2.0 | 0.00 | 0.23 | 0.00 | 98 | 1010.2 |
| 20260904091543 | 70 | 0 | 0.0 | 7.0 | 0.00 | 0.23 | 0.00 | 98 | 1010.0 |
| 20260904090049 | 70 | 0 | 0.0 | 1.0 | 0.00 | 0.23 | 0.00 | 98 | 1009.8 |
| 20260904084547 | 70 | 0 | 0.0 | 0.0 | 0.00 | 0.27 | 0.00 | 98 | 1010.0 |
| 20260904083045 | 70 | 0 | 0.0 | 0.0 | 0.00 | 0.27 | 0.00 | 98 | 1010.0 |
| 20260904081549 | 70 | 0 | 0.0 | 1.0 | 0.00 | 0.27 | 0.00 | 98 | 1010.0 |
| 20260904080047 | 70 | 0 | 0.0 | 1.0 | 0.00 | 0.27 | 0.00 | 98 | 1010.0 |
| 20260904074547 | 70 | 0 | 0.0 | 0.0 | 0.00 | 0.28 | 0.00 | 98 | 1010.1 |
| 20260904073054 | 70 | 0 | 0.0 | 3.0 | 0.00 | 0.28 | 0.00 | 98 | 1010.2 |
| 20260904071603 | 70 | 0 | 0.0 | 3.0 | 0.00 | 0.28 | 0.00 | 98 | 1010.5 |
| 20260904070048 | 70 | 124 | 0.0 | 3.0 | 0.00 | 0.28 | 0.00 | 99 | 1010.6 |
| 20260904064546 | 70 | 0 | 0.0 | 2.0 | 0.00 | 0.29 | 0.00 | 99 | 1010.7 |
| 20260904063051 | 70 | 198 | 0.0 | 2.0 | 0.00 | 0.29 | 0.00 | 99 | 1010.8 |
| 20260904061547 | 69 | 0 | 0.0 | 2.0 | 0.00 | 0.29 | 0.00 | 99 | 1011.1 |
| 20260904060050 | 69 | 0 | 0.0 | 1.0 | 0.00 | 0.29 | 0.00 | 98 | 1011.0 |
| 20260904054544 | 69 | 0 | 0.0 | 1.0 | 0.00 | 0.29 | 0.00 | 98 | 1011.2 |
| 20260904053048 | 70 | 0 | 0.0 | 1.0 | 0.00 | 0.29 | 0.00 | 98 | 1011.5 |
| 20260904051547 | 69 | 0 | 0.0 | 2.0 | 0.00 | 0.29 | 0.00 | 98 | 1011.6 |
| 20260904050048 | 69 | 0 | 0.0 | 1.0 | 0.00 | 0.29 | 0.00 | 98 | 1011.7 |
| 20260904044552 | 69 | 0 | 0.0 | 2.0 | 0.00 | 0.29 | 0.00 | 98 | 1011.9 |
| 20260904043105 | 69 | 205 | 0.0 | 2.0 | 0.00 | 0.29 | 0.00 | 98 | 1012.2 |
| 20260904041550 | 69 | 0 | 0.0 | 2.0 | 0.00 | 0.29 | 0.00 | 97 | 1012.3 |
| 20260904040055 | 69 | 0 | 0.0 | 0.0 | 0.00 | 0.29 | 0.00 | 97 | 1012.2 |
| 20260904034546 | 70 | 0 | 0.0 | 0.0 | 0.00 | 0.29 | 0.29 | 97 | 1012.3 |
| 20260904033047 | 70 | 0 | 0.0 | 0.0 | 0.00 | 0.29 | 0.29 | 97 | 1012.3 |
| 20260904031544 | 70 | 0 | 0.0 | 2.0 | 0.00 | 0.29 | 0.29 | 97 | 1012.3 |
| 20260904030049 | 70 | 0 | 0.0 | 2.0 | 0.00 | 0.29 | 0.29 | 97 | 1012.1 |
| 20260904024549 | 70 | 0 | 0.0 | 3.0 | 0.00 | 0.29 | 0.29 | 97 | 1012.6 |
| 20260904023055 | 71 | 243 | 0.0 | 2.0 | 0.00 | 0.29 | 0.29 | 97 | 1012.7 |
| 20260904021556 | 71 | 0 | 0.0 | 1.0 | 0.00 | 0.29 | 0.29 | 96 | 1012.8 |
| 20260904020050 | 71 | 0 | 0.0 | 0.0 | 0.00 | 0.29 | 0.29 | 96 | 1012.8 |
| 20260904014551 | 71 | 0 | 0.0 | 1.0 | 0.00 | 0.29 | 0.29 | 96 | 1012.9 |
| 20260904013047 | 71 | 0 | 0.0 | 2.0 | 0.00 | 0.29 | 0.29 | 96 | 1013.2 |
| 20260904011555 | 72 | 0 | 0.0 | 2.0 | 0.00 | 0.29 | 0.29 | 96 | 1013.3 |
| 20260904010046 | 72 | 0 | 0.0 | 2.0 | 0.00 | 0.29 | 0.29 | 95 | 1013.0 |
| 20260904004551 | 72 | 0 | 0.0 | 2.0 | 0.00 | 0.29 | 0.29 | 96 | 1012.9 |
| 20260904003045 | 72 | 0 | 0.0 | 3.0 | 0.00 | 0.29 | 0.29 | 95 | 1012.8 |
| 20260904001544 | 72 | 0 | 1.0 | 4.0 | 0.00 | 0.29 | 0.29 | 94 | 1012.7 |
| 20260904000051 | 72 | 237 | 2.0 | 4.0 | 0.00 | 0.29 | 0.29 | 93 | 1012.4 |
| 20260903234546 | 73 | 229 | 0.0 | 5.0 | 0.00 | 0.29 | 0.29 | 92 | 1012.5 |
| 20260903233047 | 73 | 168 | 2.0 | 5.0 | 0.00 | 0.29 | 0.29 | 92 | 1012.2 |
| 20260903231552 | 74 | 0 | 1.0 | 4.0 | 0.00 | 0.29 | 0.29 | 90 | 1012.1 |
| 20260903230047 | 75 | 0 | 2.0 | 7.0 | 0.00 | 0.29 | 0.29 | 88 | 1011.9 |
| 20260903224610 | 76 | 229 | 0.0 | 4.0 | 0.00 | 0.29 | 0.29 | 86 | 1012.1 |
| 20260903223051 | 77 | 184 | 1.0 | 5.0 | 0.00 | 0.29 | 0.29 | 86 | 1012.2 |
| 20260903221548 | 77 | 0 | 0.0 | 4.0 | 0.00 | 0.29 | 0.29 | 86 | 1012.4 |
| 20260903220059 | 78 | 227 | 0.0 | 6.0 | 0.00 | 0.29 | 0.29 | 84 | 1012.5 |
| 20260903214547 | 78 | 267 | 1.0 | 5.0 | 0.00 | 0.29 | 0.29 | 85 | 1012.4 |
| 20260903213049 | 78 | 181 | 0.0 | 7.0 | 0.00 | 0.29 | 0.29 | 85 | 1012.1 |
| 20260903211547 | 78 | 194 | 2.0 | 7.0 | 0.00 | 0.29 | 0.29 | 84 | 1012.3 |
| 20260903210052 | 78 | 257 | 2.0 | 6.0 | 0.00 | 0.29 | 0.29 | 85 | 1012.4 |
| 20260903204548 | 76 | 182 | 2.0 | 7.0 | 0.00 | 0.29 | 0.29 | 87 | 1012.2 |
| 20260903203046 | 78 | 213 | 2.0 | 7.0 | 0.00 | 0.29 | 0.29 | 83 | 1012.5 |
| 20260903201546 | 78 | 224 | 1.0 | 4.0 | 0.00 | 0.29 | 0.29 | 87 | 1012.5 |